#timestamp,LO_Frequency,Hit,StdDev 
1593554415.7,286047003.4,P
1593554435.5,286047003.2,N
1593554455.3,286047003.1,N
1593554475.2,286047006.8,Y
1593554495.0,286047003.5,P
1593554495.9,286047003.5,P
1593554515.8,286047000.3,N
1593554535.6,286046996.9,N
1593554555.4,286046995.4,N
1593554575.3,286046994.7,N
1593554595.1,286046994.3,N
1593554615.9,286046993.8,N
1593554635.7,286046994.8,N
1593554655.5,286046990.4,N
1593554675.4,286046993.1,N
1593554695.2,286046994.9,N
1593554715.0,286047001.2,N
1593554715.9,286047001.2,N
1593554735.8,286047000.7,N
1593554755.6,286047001.3,N
1593554775.5,286047004.4,N
1593554795.3,286047005.1,N
1593554815.1,286047007.0,N
1593554835.9,286047007.2,N
1593554855.7,286047009.1,N
1593554875.5,286047006.1,N
1593554895.4,286047009.9,N
1593554915.2,286047010.4,N
1593554935.1,286047010.8,N
1593554936.0,286047010.8,N
1593554955.8,286047009.1,N
1593554975.6,286047009.4,N
1593554995.5,286047012.5,N
1593555015.3,286047014.6,N
1593555035.1,286047016.5,N
1593555055.9,286047021.1,N
1593555075.7,286047028.0,Y
1593555095.6,286047028.3,P
1593555115.4,286047026.1,N
1593555135.2,286047029.4,N
1593555155.1,286047028.6,N
1593555156.0,286047028.6,N
1593555175.8,286047029.0,Y
1593555195.6,286047007.1,P
1593555215.5,286047008.9,N
1593555235.3,286047010.4,N
1593555255.2,286047013.6,N
1593555275.9,286047015.0,N
1593555295.7,286047019.4,Y
1593555315.6,286047007.0,P
1593555335.4,286047005.0,N
1593555355.2,286047007.5,N
1593555375.1,286047004.7,N
1593555376.0,286047004.7,N
1593555395.8,286047006.8,N
1593555415.7,286047009.2,Y
1593555435.5,286047001.3,P
1593555455.3,286047003.5,N
1593555475.2,286047003.0,N
1593555495.0,286047006.6,Y
1593555495.9,286047006.6,P
1593555515.7,286047003.7,N
1593555535.6,286047003.2,N
1593555555.4,286047004.8,Y
1593555575.3,286047003.5,P
1593555595.1,286047005.8,P
1593555596.0,286047005.8,P
1593555615.8,286047007.3,Y
1593555635.7,286047001.4,P
1593555655.5,286047006.2,P
1593555675.4,286047008.0,P
1593555695.2,286047010.2,Y
1593555715.0,286047005.4,P
1593555715.9,286047005.4,P
1593555735.8,286047003.0,P
1593555755.6,286047004.3,Y
1593555775.4,286047002.4,P
1593555795.3,286047004.0,P
1593555815.1,286047001.6,N
1593555835.9,286047003.1,N
1593555855.7,286047000.1,N
1593555875.5,286047001.0,N
1593555895.4,286046999.9,N
1593555915.2,286047001.5,N
1593555935.0,286047001.4,N
1593555935.9,286047001.4,N
1593555955.8,286047003.7,N
1593555975.6,286047006.0,Y
1593555995.5,286047001.4,P
1593556015.3,286047003.4,P
1593556035.1,286047005.2,P
1593556055.9,286047007.0,Y
1593556075.7,286047006.8,P
1593556095.6,286047007.5,P
1593556115.4,286047005.3,N
1593556135.2,286047007.0,Y
1593556155.1,286046998.3,P
1593556156.0,286046998.3,N
1593556175.8,286047001.8,N
1593556195.6,286046999.8,N
1593556215.5,286047001.4,N
1593556235.3,286047005.2,N
1593556255.2,286047004.5,N
1593556275.9,286047009.6,Y
1593556295.7,286047009.7,P
1593556315.6,286047009.8,N
1593556335.4,286047010.7,N
1593556355.2,286047011.8,Y
1593556375.1,286047002.0,P
1593556376.0,286047002.0,N
1593556395.8,286047001.9,N
1593556415.7,286047002.0,N
1593556435.5,286047001.7,N
1593556455.3,286047004.3,N
1593556475.2,286047001.9,N
1593556495.0,286047002.9,N
1593556495.9,286047002.9,N
1593556515.7,286047006.0,Y
1593556535.6,286047001.4,P
1593556555.4,286047003.2,P
1593556575.3,286047001.4,N
1593556595.1,286047004.7,Y
1593556615.8,286047005.9,P
1593556635.7,286047007.4,P
1593556655.5,286047006.2,N
1593556675.4,286047009.0,Y
1593556695.2,286047004.2,P
1593556715.0,286047003.6,P
1593556715.9,286047003.6,P
1593556735.8,286047008.9,Y
1593556755.6,286047004.9,P
1593556775.4,286047005.5,P
1593556795.3,286047005.3,P
1593556815.1,286047006.4,Y
1593556835.9,286047000.2,P
1593556855.7,286047002.5,N
1593556875.5,286047001.9,N
1593556895.4,286047004.0,N
1593556915.2,286047002.9,N
1593556935.0,286047006.0,Y
1593556935.9,286047006.0,P
1593556955.8,286047002.6,N
1593556975.6,286047000.2,N
1593556995.5,286047002.6,N
1593557015.3,286047001.8,N
1593557035.1,286047000.9,N
1593557055.9,286046998.6,N
1593557075.7,286047002.7,N
1593557095.5,286047001.8,N
1593557115.4,286047003.1,N
1593557135.2,286047002.3,N
1593557155.1,286047000.0,N
1593557156.0,286047000.0,N
1593557175.8,286047000.0,N
1593557195.6,286047000.7,N
1593557215.5,286047001.0,N
1593557235.3,286046995.5,N
1593557255.1,286046994.1,N
1593557275.9,286046993.3,N
1593557295.7,286046998.4,N
1593557315.6,286047001.6,N
1593557335.4,286047004.9,N
1593557355.2,286047006.8,N
1593557375.1,286047008.0,N
1593557376.0,286047008.0,N
1593557395.8,286047012.2,Y
1593557415.7,286047010.5,P
1593557435.5,286047010.8,N
1593557455.3,286047008.3,N
1593557475.2,286047008.4,N
1593557495.9,286047008.4,N
1593557515.7,286047010.7,Y
1593557535.6,286047004.1,P
1593557555.4,286047001.3,N
1593557575.3,286047004.1,N
1593557595.1,286047006.4,N
1593557596.0,286047006.4,N
1593557615.8,286047008.2,Y
1593557635.7,286047005.3,P
1593557655.5,286047004.6,P
1593557675.3,286047007.0,P
1593557695.2,286047004.9,Y
1593557715.0,286047003.8,P
1593557715.9,286047003.8,P
1593557735.8,286047003.7,P
1593557755.6,286047001.5,N
1593557775.4,286047003.5,N
1593557795.3,286047004.0,Y
1593557815.1,286047002.8,P
1593557835.8,286047002.1,P
1593557855.7,286047006.9,P
1593557875.5,286047005.0,N
1593557895.4,286047005.6,Y
1593557915.2,286047001.7,P
1593557935.0,286047006.0,P
1593557935.9,286047006.0,P
1593557955.8,286047002.2,N
1593557975.6,286047004.0,N
1593557995.4,286047002.9,N
